CAPE
0 0 0 0 0 0 0 0 0 0 0 0 0 0 0 714 686 603 577 616 726 710 669 703 728 725 748 745 816 797 761 647 524 569 661 439 455 560 541 439 327 384 218 362
0 0 0 0 0 0 0 0 0 0 0 0 0 0 0 597 750 709 660 703 689 779 794 793 786 825 812 826 839 847 895 882 703 680 651 510 548 600 614 655 509 372 300 486
0 0 0 0 0 0 0 0 0 0 0 0 0 0 0 9 700 803 811 854 827 796 831 846 897 879 929 860 830 877 940 963 807 817 759 675 695 680 768 683 606 500 462 376
0 0 0 0 0 0 0 0 0 0 0 0 0 0 0 0 0 268 625 654 804 940 997 1037 1022 884 824 816 817 822 914 950 876 991 1041 799 730 721 756 813 763 588 543 566
0 0 0 0 0 0 0 0 0 0 0 0 0 0 0 0 0 0 107 242 397 601 821 1012 857 764 765 780 793 861 938 976 1039 1110 1149 1012 812 772 781 776 712 634 632 577
0 0 0 0 0 0 0 0 0 0 0 0 0 0 0 348 312 108 226 0 284 468 643 809 854 802 816 837 864 900 940 1020 1080 1106 1128 1077 935 903 775 734 709 670 529 505
0 0 0 0 0 0 0 0 0 0 0 0 0 0 216 395 489 835 781 192 340 517 590 775 878 828 792 742 814 855 901 958 1012 1035 995 1020 997 995 780 689 646 612 568 488
0 0 0 0 0 0 0 0 0 0 0 0 0 0 214 573 864 808 742 693 591 576 690 767 863 850 788 686 643 961 1004 987 946 907 969 946 918 943 844 682 681 552 573 565
9 0 0 0 0 0 0 0 0 0 0 0 65 367 621 760 906 952 809 782 709 748 881 873 799 1052 1074 1051 1003 861 1052 1050 1013 965 863 769 692 230 671 677 687 590 632 710
23 13 0 0 0 0 0 0 0 0 0 0 0 287 357 983 907 917 990 925 841 1015 1060 1210 1160 1065 1168 1027 848 963 1068 1186 1201 1114 848 681 89 299 522 634 728 661 566 582
32 21 4 0 0 0 0 0 0 0 0 0 0 0 483 670 423 954 1065 1101 995 804 873 963 1033 1064 1309 1128 1126 1237 1452 1614 1623 1588 1326 809 226 0 494 808 735 791 802 653
11 27 1 0 1 0 0 0 0 0 0 0 0 0 417 436 262 1031 1086 950 776 582 545 814 800 769 715 1524 1616 1681 1466 1229 1199 346 223 580 547 560 1232 1064 1097 1088 968 953
29 29 2 0 0 0 0 0 0 0 0 0 0 0 424 652 471 996 943 734 539 258 228 403 527 451 571 561 526 533 741 1265 1194 670 34 363 683 868 867 985 1151 1252 1231 1122
63 44 10 0 0 0 0 0 0 0 0 0 0 0 501 680 757 610 549 441 323 269 368 285 131 211 95 325 263 166 242 325 327 489 656 672 537 995 957 819 983 1236 1612 1427
37 9 2 0 0 0 0 0 0 0 0 0 0 0 172 795 656 634 637 543 470 405 319 367 292 142 35 10 36 175 159 215 296 499 598 259 650 859 795 655 876 1066 1547 1848
0 0 0 0 0 0 0 0 0 0 0 0 49 468 655 769 862 808 614 579 399 294 390 319 159 0 0 0 0 0 0 0 0 0 0 0 170 402 275 165 151 344 505 975
0 0 0 0 0 0 0 0 0 0 0 106 420 357 687 678 522 378 232 109 27 0 0 0 0 0 0 0 0 0 0 0 0 0 0 0 0 28 103 93 1 54 157 274
0 0 0 0 0 0 0 0 0 0 0 117 0 190 194 163 88 31 12 0 0 0 0 0 0 0 0 0 0 0 0 0 0 0 0 0 0 0 0 81 42 0 0 108
0 0 0 0 0 0 0 0 0 0 0 0 0 0 0 0 0 0 0 0 0 0 0 0 0 0 0 0 0 0 0 0 0 0 0 0 0 0 0 0 8 32 0 0
0 0 0 0 0 0 0 0 0 0 0 0 0 0 0 0 0 0 0 0 0 0 0 0 0 0 0 0 0 0 0 0 0 0 0 0 0 0 0 0 0 0 43 0
0 0 0 0 0 0 0 0 0 0 0 0 0 0 0 0 0 0 0 0 0 0 0 0 0 0 0 0 0 0 0 0 0 0 0 0 0 0 0 0 0 0 0 67
0 0 0 0 0 0 0 0 0 0 0 0 0 0 0 0 0 0 0 0 0 0 0 0 0 0 0 0 0 0 0 0 0 0 0 0 0 0 0 0 0 0 0 55
0 0 0 0 0 0 0 0 0 0 0 0 0 0 0 0 0 0 0 0 0 0 0 0 0 0 0 0 0 0 0 0 0 0 0 0 0 0 0 0 0 10 15 0
0 0 0 0 0 0 0 0 0 0 0 0 0 0 0 0 0 0 0 0 0 0 0 0 0 0 0 0 0 0 0 4 19 7 0 0 0 0 0 0 0 0 0 1
0 0 0 0 0 0 0 0 0 0 0 0 0 0 0 0 0 0 0 0 0 0 0 0 0 0 0 0 0 0 0 0 20 22 7 0 0 0 0 0 0 0 0 5
0 0 0 0 0 0 0 0 0 0 0 0 0 0 0 0 0 0 0 0 0 0 0 0 0 0 0 0 0 0 0 0 1 1 0 0 0 0 0 1 1 0 0 0
CIN
-0 -0 -0 -0 -0 -0 -0 -0 -0 -0 -0 -0 -0 -0 -0 -270 -186 -157 -140 -136 -142 -178 -139 -128 -42 -41 -22 -59 -49 -48 -65 -46 -135 -127 -83 -29 -49 -27 -43 -48 -51 -61 -122 -155
-0 -0 -0 -0 -0 -0 -0 -0 -0 -0 -0 -0 -0 -0 -0 -369 -260 -197 -165 -128 -118 -127 -111 -100 -61 -43 -40 -24 -105 -85 -71 -55 -53 -59 -100 -95 -54 -52 -39 -47 -47 -56 -91 -83
-0 -0 -0 -0 -0 -0 -0 -0 -0 -0 -0 -0 -0 -0 -0 -48 -321 -282 -232 -222 -151 -130 -92 -86 -92 -55 -45 -41 -36 -134 -106 -74 -66 -50 -71 -82 -68 -62 -46 -59 -51 -97 -131 -99
-0 -0 -0 -0 -0 -0 -0 -0 -0 -0 -0 -0 -0 -0 -0 -0 -0 -299 -200 -167 -223 -164 -132 -80 -73 -71 -82 -54 -50 -151 -155 -109 -80 -57 -58 -35 -79 -72 -69 -59 -47 -38 -74 -74
-0 -0 -0 -0 -0 -0 -0 -0 -0 -0 -0 -0 -0 -0 -0 -0 -0 -0 -194 -155 -185 -166 -114 -77 -52 -75 -43 -69 -64 -63 -58 -151 -131 -94 -68 -42 -29 -63 -44 -41 -30 -36 -47 -71
-0 -0 -0 -0 -0 -0 -0 -0 -0 -0 -0 -0 -0 -0 -0 -353 -420 -200 -388 -0 -352 -240 -132 -86 -60 -146 -108 -101 -77 -85 -90 -90 -68 -125 -93 -66 -46 -31 -47 -38 -41 -40 -42 -114
-0 -0 -0 -0 -0 -0 -0 -0 -0 -0 -0 -0 -0 -0 -259 -266 -342 -430 -534 -410 -372 -275 -184 -97 -70 -46 -38 -178 -152 -152 -149 -116 -101 -96 -124 -109 -99 -56 -46 -36 -59 -43 -45 -57
-0 -0 -0 -0 -0 -0 -0 -0 -0 -0 -0 -0 -0 -0 -168 -221 -306 -402 -493 -552 -585 -274 -519 -120 -72 -42 -44 -61 -269 -349 -276 -192 -129 -100 -81 -89 -83 -70 -58 -57 -34 -82 -66 -34
-2 -0 -0 -0 -0 -0 -0 -0 -0 -0 -0 -0 -149 -148 -138 -177 -243 -414 -270 -265 -297 -397 -398 -376 -118 -447 -434 -330 -278 -192 -388 -292 -228 -142 -115 -157 -95 -122 -59 -50 -37 -54 -68 -51
-5 -4 -0 -0 -0 -0 -0 -0 -0 -0 -0 -0 -0 -91 -125 -141 -171 -166 -265 -237 -359 -414 -402 -386 -430 -272 -233 -162 -190 -291 -276 -343 -265 -190 -164 -290 -468 -83 -72 -68 -60 -79 -60 -60
-4 -12 -8 -0 -0 -0 -0 -0 -0 -0 -0 -0 -0 -0 -89 -94 -74 -288 -292 -308 -352 -380 -338 -291 -303 -289 -272 -249 -352 -320 -298 -196 -133 -172 -95 -110 -165 -0 -302 -111 -88 -73 -88 -54
-22 -29 -3 -0 -44 -0 -0 -0 -0 -0 -0 -0 -0 -0 -86 -284 -308 -237 -241 -271 -330 -424 -384 -350 -377 -426 -385 -276 -247 -211 -132 -63 -84 -71 -154 -242 -271 -232 -39 -64 -107 -67 -78 -61
-46 -31 -5 -0 -22 -12 -0 -0 -0 -0 -0 -0 -0 -0 -237 -296 -344 -190 -213 -254 -301 -204 -153 -314 -381 -423 -353 -329 -275 -233 -134 -82 -76 -90 -120 -115 -77 -56 -49 -55 -59 -97 -84 -85
-47 -66 -15 -0 -0 -0 -0 -0 -0 -0 -0 -0 -0 -0 -164 -269 -220 -200 -219 -157 -144 -124 -88 -61 -71 -35 -205 -315 -363 -394 -388 -238 -233 -206 -197 -252 -236 -112 -106 -129 -89 -81 -39 -45
-56 -20 -3 -0 -0 -0 -0 -0 -0 -0 -0 -0 -0 -0 -374 -209 -175 -136 -100 -99 -77 -59 -55 -46 -35 -21 -23 -9 -328 -347 -390 -440 -368 -254 -218 -289 -153 -94 -107 -156 -119 -95 -15 -2
-0 -0 -0 -0 -0 -0 -0 -0 -0 -0 -0 -1 -176 -208 -195 -123 -81 -67 -69 -58 -59 -50 -24 -9 -2 -0 -0 -0 -0 -0 -0 -0 -0 -0 -0 -0 -176 -118 -132 -149 -180 -191 -135 -49
-0 -0 -0 -0 -0 -0 -0 -0 -0 -0 -0 -254 -124 -144 -112 -81 -74 -61 -50 -35 -22 -0 -0 -0 -0 -0 -0 -0 -0 -0 -0 -0 -0 -0 -0 -0 -0 -140 -134 -95 -8 -240 -181 -147
-0 -0 -0 -0 -0 -0 -0 -0 -0 -0 -0 -123 -0 -132 -91 -49 -41 -57 -22 -0 -0 -0 -0 -0 -0 -0 -0 -0 -0 -0 -0 -0 -0 -0 -0 -0 -0 -0 -0 -76 -63 -0 -0 -138
-0 -0 -0 -0 -0 -0 -0 -0 -0 -0 -0 -0 -0 -0 -0 -0 -0 -0 -0 -0 -0 -0 -0 -0 -0 -0 -0 -0 -0 -0 -0 -0 -0 -0 -0 -0 -0 -0 -0 -0 -6 -16 -0 -0
-0 -0 -0 -0 -0 -0 -0 -0 -0 -0 -0 -0 -0 -0 -0 -0 -0 -0 -0 -0 -0 -0 -0 -0 -0 -0 -0 -0 -0 -0 -0 -0 -0 -0 -0 -0 -0 -0 -0 -0 -0 -0 -32 -0
-0 -0 -0 -0 -0 -0 -0 -0 -0 -0 -0 -0 -0 -0 -0 -0 -0 -0 -0 -0 -0 -0 -0 -0 -0 -0 -0 -0 -0 -0 -0 -0 -0 -0 -0 -0 -0 -0 -0 -0 -0 -0 -0 -24
-0 -0 -0 -0 -0 -0 -0 -0 -0 -0 -0 -0 -0 -0 -0 -0 -0 -0 -0 -0 -0 -0 -0 -0 -0 -0 -0 -0 -0 -0 -0 -0 -0 -0 -0 -0 -0 -0 -0 -0 -0 -0 -0 -25
-0 -0 -0 -0 -0 -0 -0 -0 -0 -0 -0 -0 -0 -0 -0 -0 -0 -0 -0 -0 -0 -0 -0 -0 -0 -0 -0 -0 -0 -0 -0 -0 -0 -0 -0 -0 -0 -0 -0 -0 -0 -218 -159 -39
-0 -0 -0 -0 -0 -0 -0 -0 -0 -0 -0 -0 -0 -0 -0 -0 -0 -0 -0 -0 -0 -0 -0 -0 -0 -0 -0 -0 -0 -0 -0 -1 -1 -2 -0 -0 -0 -0 -0 -0 -0 -0 -0 -208
-0 -0 -0 -0 -0 -0 -0 -0 -0 -0 -0 -0 -0 -0 -0 -0 -0 -0 -0 -0 -0 -0 -0 -0 -0 -0 -0 -0 -0 -0 -0 -0 -4 -11 -31 -0 -0 -0 -0 -0 -0 -0 -0 -154
-0 -0 -0 -0 -0 -0 -0 -0 -0 -0 -0 -0 -0 -0 -0 -0 -0 -0 -0 -0 -0 -0 -0 -0 -0 -0 -0 -0 -0 -0 -0 -0 -7 -5 -0 -0 -0 -0 -0 -1 -0 -0 -0 -0
Wind_Speed
nan nan nan nan nan nan nan nan nan nan nan nan nan nan nan 12 16 17 16 16 19 23 18 17 16 21 19 18 17 14 14 13 8 7 7 5 4 6 7 2 9 6 4 2
nan nan nan nan nan nan nan nan nan nan nan nan nan nan nan 16 26 26 21 18 18 18 14 15 18 20 23 23 21 17 15 12 9 8 6 8 10 7 6 6 10 9 7 2
nan nan nan nan nan nan nan nan nan nan nan nan nan nan nan nan 15 12 16 20 17 16 14 14 18 22 19 21 22 21 18 14 12 11 8 6 7 5 5 4 7 10 11 5
nan nan nan nan nan nan nan nan nan nan nan nan nan nan nan nan nan 14 15 22 30 15 8 9 8 15 21 20 18 17 18 17 8 12 12 10 8 7 6 7 6 6 9 9
nan nan nan nan nan nan nan nan nan nan nan nan nan nan nan nan nan nan 17 22 27 23 18 12 11 12 13 14 14 13 13 14 12 11 11 8 8 7 8 7 7 6 7 10
nan nan nan nan nan nan nan nan nan nan nan nan nan nan nan 3 3 13 16 nan 21 23 19 10 12 16 19 16 20 19 15 9 8 9 9 11 9 9 9 8 9 7 5 6
nan nan nan nan nan nan nan nan nan nan nan nan nan nan 2 2 3 8 12 10 6 12 15 13 16 17 23 18 19 20 24 19 12 8 7 10 10 12 10 8 8 10 9 7
nan nan nan nan nan nan nan nan nan nan nan nan nan nan 5 9 7 7 7 3 5 7 8 11 13 22 19 20 25 30 28 26 23 18 10 8 11 13 12 10 8 9 11 7
nan nan nan nan nan nan nan nan nan nan nan nan nan 13 11 12 8 9 11 12 10 12 11 13 13 13 13 17 18 32 36 39 22 21 23 22 14 13 14 10 12 8 10 13
nan nan nan nan nan nan nan nan nan nan nan nan nan 19 14 11 11 12 14 14 17 16 14 13 17 20 11 10 11 27 28 26 21 27 22 19 nan 20 10 12 6 9 10 11
nan nan nan nan nan nan nan nan nan nan nan nan nan nan 20 23 23 20 18 22 24 23 18 22 21 19 21 20 22 30 40 35 34 35 17 12 16 nan 17 16 3 7 10 15
nan nan nan nan nan nan nan nan nan nan nan nan nan nan 23 27 29 27 26 27 25 27 26 24 20 23 32 31 32 32 40 42 37 33 28 23 18 12 11 18 8 8 8 16
nan nan nan nan nan nan nan nan nan nan nan nan nan nan 29 31 33 30 32 30 31 33 31 30 31 35 32 32 29 28 31 40 39 38 nan 30 22 19 18 20 11 16 14 12
nan nan nan nan nan nan nan nan nan nan nan nan nan nan 27 32 37 33 33 35 36 38 38 35 37 38 nan 33 32 34 33 35 40 36 36 31 24 22 21 19 18 17 21 21
nan nan nan nan nan nan nan nan nan nan nan nan nan nan 38 39 40 41 42 41 42 42 41 37 39 39 nan nan nan 36 36 36 39 39 37 33 32 30 31 29 25 26 25 22
nan nan nan nan nan nan nan nan nan nan nan nan nan 39 42 44 44 45 45 47 46 44 44 42 41 nan nan nan nan nan nan nan nan nan nan nan 37 38 37 39 33 33 35 32
nan nan nan nan nan nan nan nan nan nan nan 35 35 34 39 41 45 48 49 50 nan nan nan nan nan nan nan nan nan nan nan nan nan nan nan nan nan nan 42 nan nan nan 39 43
nan nan nan nan nan nan nan nan nan nan nan 35 nan 37 38 40 nan nan nan nan nan nan nan nan nan nan nan nan nan nan nan nan nan nan nan nan nan nan nan nan nan nan nan 46
nan nan nan nan nan nan nan nan nan nan nan nan nan nan nan nan nan nan nan nan nan nan nan nan nan nan nan nan nan nan nan nan nan nan nan nan nan nan nan nan nan nan nan nan
nan nan nan nan nan nan nan nan nan nan nan nan nan nan nan nan nan nan nan nan nan nan nan nan nan nan nan nan nan nan nan nan nan nan nan nan nan nan nan nan nan nan nan nan
nan nan nan nan nan nan nan nan nan nan nan nan nan nan nan nan nan nan nan nan nan nan nan nan nan nan nan nan nan nan nan nan nan nan nan nan nan nan nan nan nan nan nan nan
nan nan nan nan nan nan nan nan nan nan nan nan nan nan nan nan nan nan nan nan nan nan nan nan nan nan nan nan nan nan nan nan nan nan nan nan nan nan nan nan nan nan nan nan
nan nan nan nan nan nan nan nan nan nan nan nan nan nan nan nan nan nan nan nan nan nan nan nan nan nan nan nan nan nan nan nan nan nan nan nan nan nan nan nan nan nan nan nan
nan nan nan nan nan nan nan nan nan nan nan nan nan nan nan nan nan nan nan nan nan nan nan nan nan nan nan nan nan nan nan nan nan nan nan nan nan nan nan nan nan nan nan nan
nan nan nan nan nan nan nan nan nan nan nan nan nan nan nan nan nan nan nan nan nan nan nan nan nan nan nan nan nan nan nan nan nan nan nan nan nan nan nan nan nan nan nan nan
nan nan nan nan nan nan nan nan nan nan nan nan nan nan nan nan nan nan nan nan nan nan nan nan nan nan nan nan nan nan nan nan nan nan nan nan nan nan nan nan nan nan nan nan
Wind_Direction
nan nan nan nan nan nan nan nan nan nan nan nan nan nan nan 81 76 52 39 44 44 45 36 31 23 13 3 5 7 8 4 10 351 340 337 314 303 298 291 45 359 6 350 327
nan nan nan nan nan nan nan nan nan nan nan nan nan nan nan 87 68 52 40 32 39 44 23 14 22 16 6 2 8 5 14 357 360 353 350 320 324 341 315 11 334 352 350 311
nan nan nan nan nan nan nan nan nan nan nan nan nan nan nan nan 98 60 56 46 37 37 22 18 17 21 6 2 2 5 8 351 351 338 308 298 305 305 319 315 316 343 352 306
nan nan nan nan nan nan nan nan nan nan nan nan nan nan nan nan nan 68 39 26 29 17 10 23 16 29 14 7 357 352 356 359 333 328 334 319 316 315 324 325 302 298 333 321
nan nan nan nan nan nan nan nan nan nan nan nan nan nan nan nan nan nan 59 30 21 11 355 17 16 29 16 349 348 344 342 355 350 333 336 314 285 278 267 278 300 317 309 312
nan nan nan nan nan nan nan nan nan nan nan nan nan nan nan 191 101 91 83 nan 6 356 10 8 3 353 350 350 349 340 337 340 348 335 323 319 302 283 267 257 263 269 274 276
nan nan nan nan nan nan nan nan nan nan nan nan nan nan 359 111 130 98 100 94 24 336 345 0 350 351 354 335 346 342 343 341 321 327 332 306 291 284 290 282 259 257 252 263
nan nan nan nan nan nan nan nan nan nan nan nan nan nan 246 256 225 191 178 278 282 295 332 312 316 310 318 327 319 336 341 335 326 322 297 271 281 280 270 261 256 264 267 252
nan nan nan nan nan nan nan nan nan nan nan nan nan 267 258 258 251 224 232 233 246 253 295 307 323 318 333 348 318 331 321 334 317 305 291 285 277 235 273 268 272 252 269 274
nan nan nan nan nan nan nan nan nan nan nan nan nan 277 299 286 273 258 257 251 277 297 289 290 299 295 304 308 299 320 315 320 298 291 286 302 nan 280 262 254 285 303 298 284
nan nan nan nan nan nan nan nan nan nan nan nan nan nan 292 303 300 301 289 291 296 300 304 294 290 307 318 281 287 292 285 282 284 288 344 348 353 nan 244 247 59 322 305 296
nan nan nan nan nan nan nan nan nan nan nan nan nan nan 278 294 302 303 300 300 302 298 289 281 286 290 286 268 268 273 278 286 295 292 311 309 319 326 301 321 319 298 287 292
nan nan nan nan nan nan nan nan nan nan nan nan nan nan 282 284 289 291 295 293 293 291 282 282 281 280 277 274 271 272 279 295 303 311 nan 316 322 313 305 315 287 277 288 290
nan nan nan nan nan nan nan nan nan nan nan nan nan nan 285 290 295 296 297 294 289 284 284 286 282 282 nan 283 281 279 279 290 296 299 302 294 290 285 276 274 271 276 273 270
nan nan nan nan nan nan nan nan nan nan nan nan nan nan 290 295 298 296 291 289 286 285 284 281 281 282 nan nan nan 285 295 291 290 289 288 289 290 289 285 280 275 271 265 267
nan nan nan nan nan nan nan nan nan nan nan nan nan 276 283 285 283 286 291 290 287 282 280 279 278 nan nan nan nan nan nan nan nan nan nan nan 283 287 287 285 278 271 270 263
nan nan nan nan nan nan nan nan nan nan nan 277 278 281 278 275 280 283 282 283 nan nan nan nan nan nan nan nan nan nan nan nan nan nan nan nan nan nan 283 nan nan nan 270 271
nan nan nan nan nan nan nan nan nan nan nan 264 nan 269 273 276 nan nan nan nan nan nan nan nan nan nan nan nan nan nan nan nan nan nan nan nan nan nan nan nan nan nan nan 268
nan nan nan nan nan nan nan nan nan nan nan nan nan nan nan nan nan nan nan nan nan nan nan nan nan nan nan nan nan nan nan nan nan nan nan nan nan nan nan nan nan nan nan nan
nan nan nan nan nan nan nan nan nan nan nan nan nan nan nan nan nan nan nan nan nan nan nan nan nan nan nan nan nan nan nan nan nan nan nan nan nan nan nan nan nan nan nan nan
nan nan nan nan nan nan nan nan nan nan nan nan nan nan nan nan nan nan nan nan nan nan nan nan nan nan nan nan nan nan nan nan nan nan nan nan nan nan nan nan nan nan nan nan
nan nan nan nan nan nan nan nan nan nan nan nan nan nan nan nan nan nan nan nan nan nan nan nan nan nan nan nan nan nan nan nan nan nan nan nan nan nan nan nan nan nan nan nan
nan nan nan nan nan nan nan nan nan nan nan nan nan nan nan nan nan nan nan nan nan nan nan nan nan nan nan nan nan nan nan nan nan nan nan nan nan nan nan nan nan nan nan nan
nan nan nan nan nan nan nan nan nan nan nan nan nan nan nan nan nan nan nan nan nan nan nan nan nan nan nan nan nan nan nan nan nan nan nan nan nan nan nan nan nan nan nan nan
nan nan nan nan nan nan nan nan nan nan nan nan nan nan nan nan nan nan nan nan nan nan nan nan nan nan nan nan nan nan nan nan nan nan nan nan nan nan nan nan nan nan nan nan
nan nan nan nan nan nan nan nan nan nan nan nan nan nan nan nan nan nan nan nan nan nan nan nan nan nan nan nan nan nan nan nan nan nan nan nan nan nan nan nan nan nan nan nan